Showing default

GLOBALSTAR M043, 25874

Orbit data source: Space-Track

GLOBALSTAR M043, 25874 is a payload satellite owned by Globalstar (US) in LEO that was launched on Sun, 25 Jul 1999 UTC via a DELTA 7420-10C launch vehicle from the Air Force Eastern Test Range (AFETR). Payload-class satellites include a variety of spacecraft equipped with specific instruments for various scientific and technological missions. These include communications satellites like Starlink; space stations such as the ISS; scientific satellites like the Hubble; Earth observation satellites from companies like Planet Labs, Umbra, and HawkEye 360; GPS; miniature CubeSats for education and research; and military/defense satellites.

Loading next visibility...
Identifier
25874, 1999-041C
Orbit
LEO
Country
Flag of UnknownUnknown / GLOB
Related business
Manufacturer
SS/Loral
Mission
Non-operational Commercial Communications
Bus & Motor
LS-400, LS-400 AOCS
Mass
450 kg wet, 380 kg dry
Launch date (UTC)
1999-07-25 (26 years ago)
Launch vehicle
DELTA 7420-10C
Launch site
Air Force Eastern Test Range (AFETR)
Object type
Payload
Rocket body
Debris
Shape & HBR
Box + 2 Pan, 6.0 m
Radar Cross Section
5.587 m², Large (>1 m²)

Expand to show TLE details & history
Last TLE update: 1 day ago

TLE from 1 day ago
0 GLOBALSTAR M043
1 25874U 99041C   25306.51112978 -.00000046  00000-0  66836-3 0  9992
2 25874  51.9361 120.7369 0013568 182.2048 189.4766 11.25696592138457
Epoch: 2025-11-02T12:16Z
TLE epoch observation values (Epoch: 2025-11-02T12:16:01.612Z)
Latitude
9.13604°
Longitude
-98.09438°
Altitude
2,042.87 km
Speed
6.878 km/s
True Right ascension
08h 31m 45s
True Declination
9° 05' 26"
Sunlit
Object was in daylight at epoch
Visualization orbit readout
Latitude
Unknown
Longitude
Unknown
Altitude
Unknown
Speed
Unknown
Apparent Right ascension
Unknown
Apparent Declination
Unknown
Sunlit
N/A
Visualization observer readout
Local Sidereal Time
13:14:46
Azimuth
Unknown
Elevation
Unknown
Doppler factor
Unknown
Orbital elements
Apogee altitude
2,043.484 km
Perigee altitude
2,020.662 km
Semi-major axis
8,410.21 km
Eccentricity
0.00136
Inclination
51.9361°
RAAN
120.7369°
Arg. of periapsis
182.2048°
True anomaly
189.45104°
Mean anomaly
189.4766°
Eccentric anomaly
189.46382°
Mean motion
2.81406 °/min
Orbital period
127.93 mins
BSTAR
0.00066836
Loading maneuver chart data...
Computing Atmospheric mass density...
Loading historical data...
Loading historical data...
Loading historical data...
Loading historical data...
Loading historical data...
Loading historical data...
Loading historical data...
Other satellites on launch #41 in the year 1999 (1999-07-25 UTC)

Documentation

Showing up to 5 results
|